Regional Weather Roundup
Issued by NWS Bismarck, ND

Home | Current Version | Previous Version | Text Only | Print | Product List | Glossary On
Versions: 1 2 3 4 5 6 7 8 9 10 11 12 13 14 15 16 17 18 19 20 21 22 23 24 25 26 27 28 29 30 31 32 33 34 35 36 37 38 39 40 41 42 43 44 45 46 47 48 49 50
000
ASUS43 KBIS 250959
RWRBIS

NWR BROADCAST TEXT
NATIONAL WEATHER SERVICE BISMARCK ND
500 AM CDT SAT OCT 25 2014

NOTE: "FAIR" INDICATES FEW OR NO CLOUDS BELOW 12,000 FEET WITH NO
SIGNIFICANT WEATHER AND/OR OBSTRUCTIONS TO VISIBILITY.


CITY           SKY/WX    TMP DP  RH WIND       PRES   REMARKS
WILLISTON      MOCLDY    41  30  65 CALM      30.10R
MINOT          MOCLDY    43  30  60 W12       30.06R
MINOT AFB      NOT AVBL
BISMARCK       MOCLDY    45  32  60 NW6       30.10S
DICKINSON      NOT AVBL
GARRISON         N/A     41  31  67 NW7       30.09R
HETTINGER ARPT CLEAR     38  30  73 NW5       30.14S
JAMESTOWN      NOT AVBL
CARRINGTON     FAIR      37  32  81 W12       30.07S
$$

CITY           SKY/WX    TMP DP  RH WIND       PRES   REMARKS
GRAND FORKS    PTCLDY    43  33  68 W9        29.99R
GRAND FORKS AF NOT AVBL
DEVILS LAKE    PTCLDY    43  30  61 W12       30.02R
FARGO          PTCLDY    43  32  65 W10       30.02R
GWINNER        CLOUDY    48  34  57 W8        30.08R
$$

CITY           SKY/WX    TMP DP  RH WIND       PRES   REMARKS
ABERDEEN       MOCLDY    52  35  52 N7        30.09R
MOBRIDGE       CLOUDY    50  37  61 N3        30.08S
RAPID CITY     CLEAR     42  32  67 NW8       30.15F
GLASGOW        CLOUDY    42  32  67 SE3       30.09S
SIDNEY         CLOUDY    45  34  65 CALM      30.12F
WOLF POINT     CLOUDY    42  34  73 CALM      30.11R
GLENDIVE       CLOUDY    43  32  65 S6        30.13S
MILES CITY     PTCLDY    43  33  68 SE6       30.11F
BAKER          CLEAR     34  28  79 SE5       30.14S
$$

CITY           SKY/WX    TMP DP  RH WIND       PRES   REMARKS
BILLINGS       PTCLDY    41  34  76 SW7       30.09F
GREAT FALLS    MOCLDY    42  39  89 E5        30.01F
$$




USA.gov is the U.S. government's official web portal to all federal, state and local government web resources and services.